Location: Eurasberg
(48.3353°N, 11.0839°E)
Time: 15:49:38
(UTC+00:00)

Cosmos 1484 Rocket - Pass Details

Date: 18 January 2026
Orbit: 439 x 466 km, 97.6° (Epoch: 18 February)

Event Time Altitude Azimuth Distance (km) Brightness Sun altitude
Rises 05:06:05 0° 16° (NNE) 2,459 6.2 -18.4°
Reaches altitude 10° 05:08:07 10° 19° (NNE) 1,587 5.3 -18.1°
Maximum altitude 05:11:30 63° 102° (ESE) 510 2.9 -17.5°
Drops below altitude 10° 05:14:53 10° 184° (S) 1,590 5.3 -17.0°
Sets 05:16:56 0° 188° (S) 2,464 6.2 -16.7°
